This demonstration page uses our WeatherBlox Daily Observations layout. Learn more.

Left ArrowRight Arrow

41.12389, -100.76542

Hourly Observations for September 25, 2016

Temp ( °F °C ) Dew Point ( °F °C ) Humidity (%) Winds ( mph kmh ) Pressure ( in mb ) Visibility ( mi km ) Precip ( " mm )
12:53 am 00:53 Clear 51 10.6 42 5.6 71 71 WNW 6 9 30.09 1019 10 16 0.00 0.00
1:53 am 01:53 Partly Cloudy 51 10.6 43 6.1 74 74 WNW 8 13 30.11 1020 10 16 0.00 0.00
2:53 am 02:53 Clear 54 12.2 43 6.1 67 67 WNW 12 19 30.12 1020 10 16 0.00 0.00
3:53 am 03:53 Clear 53 11.7 42 5.6 66 66 WNW 10 17 30.14 1021 10 16 0.00 0.00
4:53 am 04:53 Clear 50 10 42 5.6 74 74 WNW 10 17 30.16 1022 10 16 0.00 0.00
5:53 am 05:53 Clear 50 10 42 5.6 74 74 WNW 10 17 30.19 1022 10 16 0.00 0.00
6:53 am 06:53 Clear 46 7.8 41 5 83 83 WNW 6 9 30.22 1023 10 16 0.00 0.00
7:53 am 07:53 Sunny 50 10 42 5.6 74 74 NW 10 17 30.26 1025 10 16 0.00 0.00
8:53 am 08:53 Sunny 55 12.8 43 6.1 64 64 NW 16 26 30.27 1025 10 16 0.00 0.00
9:53 am 09:53 Sunny 61 16.1 43 6.1 52 52 NW 25 41 30.28 1025 10 16 0.00 0.00
10:53 am 10:53 Sunny 65 18.3 41 5 42 42 NW 21 33 30.28 1025 10 16 0.00 0.00
11:53 am 11:53 Sunny 68 20 38 3.3 33 33 NW 25 41 30.27 1025 10 16 0.00 0.00
12:53 pm 12:53 Sunny 70 21.1 33 0.6 26 26 NNW 22 35 30.26 1025 10 16 0.00 0.00
1:53 pm 13:53 Sunny 72 22.2 32 0 23 23 NNW 20 31 30.25 1025 10 16 0.00 0.00
2:53 pm 14:53 Sunny 73 22.8 29 -1.7 19 19 NNW 23 37 30.22 1024 10 16 0.00 0.00
3:53 pm 15:53 Sunny 73 22.8 26 -3.3 17 17 N 18 30 30.22 1024 10 16 0.00 0.00
4:53 pm 16:53 Sunny with Light Rain 73 22.8 22 -5.6 15 15 NNW 12 19 30.23 1024 10 16 0.00 0.03
5:53 pm 17:53 Sunny 72 22.2 21 -6.1 15 15 NNW 15 24 30.24 1024 10 16 0.00 0.03
6:53 pm 18:53 Sunny 67 19.4 21 -6.1 17 17 N 13 20 30.27 1025 10 16 0.00 0.00
7:53 pm 19:53 Clear 57 13.9 24 -4.4 28 28 N 6 9 30.30 1026 10 16 0.00 0.00
8:53 pm 20:53 Clear 49 9.4 30 -1.1 48 48 Calm 30.33 1027 10 16 0.00 0.00
9:53 pm 21:53 Clear 45 7.2 32 0 61 61 Calm 30.35 1028 10 16 0.00 0.00
10:53 pm 22:53 Clear 43 6.1 31 -0.6 63 63 Calm 30.35 1028 10 16 0.00 0.00
11:53 pm 23:53 Clear 42 5.6 32 0 68 68 Calm 30.34 1028 10 16 0.00 0.00

Powered by AerisWeather